www.pogodaiklimat.ru
ПОГОДА в Форт Кэмпбелл
Время
и дата
09:56 22.05
10:41 22.05
10:56 22.05
11:15 22.05
11:56 22.05
12:26 22.05
12:41 22.05
12:56 22.05
13:41 22.05
13:56 22.05
14:11 22.05
14:56 22.05
15:11 22.05
15:56 22.05
16:56 22.05
17:56 22.05
18:56 22.05
19:56 22.05
20:56 22.05
21:56 22.05
22:56 22.05
23:56 22.05
00:56 23.05
01:56 23.05
02:56 23.05
03:11 23.05
03:56 23.05
04:56 23.05
05:56 23.05
06:26 23.05
06:56 23.05
07:29 23.05
07:56 23.05
08:56 23.05
09:54 23.05
09:56 23.05
10:41 23.05
10:56 23.05
11:43 23.05
11:56 23.05
12:41 23.05
12:56 23.05
13:56 23.05
14:26 23.05
14:56 23.05
15:56 23.05
16:56 23.05
17:56 23.05
Ветер
(напр.,м/с)
Видим. Явления Облачность Т
(С)
Тd
(С)
f
(%)
Тe
(С)
Тes
(С)
Комфортность P
(гПа)
Po
(гПа)
Тmin
(С)
Tmax
(С)
R
(мм)
R24
(мм)
S
(см)
С 1 14 км 10/10 270 м +17.7 +17.5 99 +18 +18 1023.7 1002.6
СЗ 2 11 км 10/10 300 м +18.0 +18.0 100 +18 +18 1023.7 1002.6
СЗ 3 16 км 10/10 270 м +17.5 +17.3 99 +17 +17 1024.0 1003.0
СЗ 2 14 км 10/10 240 м +17.0 +17.0 100 +16 +16 1024.3 1003.3
С 3 16 км 10/10 270 м +17.1 +16.9 99 +16 +16 1024.0 1003.0 +17.1 +18.4
С 2 16 км 10/10 270 м +18.0 +18.0 100 +18 +18 1024.0 1003.0
С 2 16 км 10/10 390 м +18.0 +18.0 100 +18 +18 1023.7 1002.6
С 2 16 км 10/10 390 м +17.7 +17.5 99 +17 +17 1024.0 1003.0
С 2 16 км 10/10 450 м +18.0 +18.0 100 +18 +18 1023.7 1002.6
С 2 16 км 10/10 450 м +18.4 +17.7 96 +19 +19 1023.7 1002.6
С 2 16 км 10/10 600 м +19.0 +18.0 94 +20 +20 1023.6 1002.6
С 2 16 км 8/8 690 м +18.4 +16.7 90 +19 +20 1023.0 1002.0
С 3 16 км 5/5 930 м +19.0 +17.0 88 +20 +22 1022.9 1002.0
С 3 16 км 10/10 660 м +18.1 +15.9 87 +18 +18 1023.0 1002.0
С 2 16 км 2/2 1470 м +17.9 +15.9 88 +17 +20 1023.3 1002.3
С 2 16 км 10/10 1110 м +17.5 +16.5 94 +17 +17 1023.3 1002.3 +17.0 +18.7
С 2 16 км 8/0 2400 м
[Ac]
+17.1 +16.6 97 +17 +17 1023.0 1002.0
С 2 16 км 2/0 3300 м
[Ac]
+16.8 +14.8 88 +16 +16 1023.7 1002.6
С 2 16 км 8/8 1050 м +15.9 +12.8 82 +15 +15 1024.1 1003.0
СВ 2 16 км 10/10 960 м +15.6 +11.6 77 +14 +14 1023.4 1002.3
СВ 2 10 км мгла 8/8 930 м +14.9 +12.4 85 +14 +14 1023.1 1002.0
С 2 16 км 2/0 3600 м
[Ac]
+14.7 +12.2 85 +13 +13 1022.7 1001.6 +14.7 +17.6
С 2 16 км 5/5 990 м +14.6 +12.1 85 +13 +13 1021.7 1000.6
С 2 16 км 5/0 3000 м
[Ac]
+14.7 +12.9 89 +13 +13 1020.7 999.7
СВ 2 16 км 10/10 900 м +14.9 +13.6 92 +13 +13 1020.3 999.3
СВ 2 16 км 10/10 840 м +15.0 +14.0 94 +13 +13 1020.3 999.3
СВ 2 16 км 10/10 750 м +15.0 +13.9 93 +13 +13 1020.3 999.3
С 2 16 км 10/10 780 м +15.2 +13.9 92 +14 +14 1021.0 1000.0
С 2 16 км 10/10 780 м +15.1 +13.6 91 +14 +14 1021.4 1000.3 +14.5 +15.2
С 2 16 км слабая морось 10/10 690 м +15.0 +13.0 88 +14 +14 1021.4 1000.3
С 2 11 км слабый дождь 10/10 240 м +13.9 +13.7 99 +12 +12 1021.4 1000.3
С 3 16 км 10/10 660 м +14.0 +14.0 100 +12 +12 1021.4 1000.3
С 3 16 км 10/10 690 м +14.3 +14.1 99 +12 +12 1021.8 1000.6
СВ 2 16 км 10/10 630 м +14.0 +10.0 77 +12 +12 1001.3
С 3 16 км слабая морось 10/10 660 м +13.0 +13.0 100 +10 +10 1021.5 1000.3
С 3 16 км слабая морось 10/10 660 м +13.0 +12.8 99 +10 +10 1021.5 1000.3
СВ 3 10 км слабая морось 10/10 м +13.0 +13.0 100 +10 +10 1021.5 1000.3
СВ 4 14 км слабая морось 10/10 270 м +12.9 +12.7 99 +10 +10 1021.1 1000.0 +12.8 +15.2
СВ 3 16 км 10/10 300 м +14.0 +14.0 100 +12 +12 1021.1 1000.0
СВ 3 16 км 10/10 330 м +14.4 +14.2 99 +12 +12 1020.8 999.7 +12.8 +15.1
СВ 3 16 км 10/10 450 м +16.0 +15.0 94 +15 +15 1020.7 999.7
СВ 3 16 км 10/10 450 м +16.0 +15.5 97 +15 +15 1020.4 999.3
СВ 2 16 км 10/10 510 м +16.8 +15.6 93 +16 +16 1020.0 999.0
СВ 2 16 км 10/10 600 м +18.0 +16.0 88 +18 +18 1020.0 999.0
СВ 2 16 км 10/10 м +18.5 +15.4 82 +19 +19 1019.6 998.7
СВ 2 16 км 10/10 720 м +18.6 +15.3 81 +19 +19 1019.3 998.3
СВ 2 16 км 10/10 720 м +18.7 +15.7 83 +20 +20 1019.6 998.7
СВ 2 16 км 10/10 750 м +17.9 +16.0 89 +18 +18 1020.0 999.0 +14.5 +18.9
Местоположение метеостанции Campbell Army Airfield: широта 36.6667 долгота -87.5000 высота над уровнем моря 174 м.
В архиве по умолчанию представлена погода в Форт Кэмпбелл за последние 1-2 суток. Обновление информации о фактической погоде в базе происходит ежечасно! Архивные данные за месяц целиком и за предыдущие месяцы Вы можете получить, выбрав интересующий диапазон дат из раскрывающегося списка и нажав кнопку "Ввод!".
Внимание! Архив погоды МЕТАР в базе сайта по станциям, не включенным в климатический монитор, хранится не более 60 дней. Нет смысла пытаться выбрать более раннюю дату.
*Определитесь, кто Вы:
Внимание! Время в таблицах - местное (без учета летнего времени). Для получения всемирного времени необходимо вычесть поправку, которая равна -6 ч.
Смотрите также архив погоды в соседних городах и на ближайших метеорологических станциях:
Партнеры нашего сайта:      
Пояснения к столбцам:
  • Ветер - указаны скорость ветра в м/с - средняя за 10 мин, порывы в срок и между сроками (в фигурных скобках) и направление, откуда дует ветер: С - северный,
  • СВ - северо-восточный, В - восточный, ЮВ - юго-восточный, Ю - южный, ЮЗ - юго-западный, З - западный, СЗ - северо-западный.
  • Видимость - горизонтальная дальность видимости в метрах или километрах. При видимости от 1 до 10 км при отсутствии осадков обычно наблюдается дымка, при ухудшении видимости до 1 км и менее - туман. В сухую погоду видимость может ухудшаться дымом, пылью или мглою.
  • Явления - указаны атмосферные явления, наблюдавшиеся в срок или в последний час перед сроком; фигурными скобками обозначены явления, наблюдавшиеся между сроками (за 1-3 часа до срока); квадратными скобками обозначены град или гололедные отложения с указанием их диаметра в мм.
  • Облачность - указаны через наклонную черту общая и нижняя облачность в баллах и высота нижней границы облаков в метрах; квадратными скобками обозначены формы облаков: Ci - перистые, Cs - перисто-слоистые, Cc - перисто-кучевые, Ac - высококучевые, As - высокослоистые, Sc - слоисто-кучевые, Ns - слоисто-дождевые, Cu - кучевые, Cb - кучево-дождевые. Подробнее классификацию облаков см. в Атласе облаков (PDF).
  • T - Температура воздуха - температура, измеренная на высоте 2 м над землей.
  • Td - Температура точки росы - температура, при понижении до которой содержащийся в воздухе водяной пар достигнет насыщения.
  • f - Относительная влажность воздуха - влажноcть воздуха, измеренная на высоте 2 м над землей.
  • Te - Эффективная температура - температура, которую ощущает одетый по сезону человек в тени. Характеристика душности погоды. При расчете учитывается влияние влажности воздуха и скорости ветра на теплоощущения человека.
  • Tes - Эффективная температура на солнце - температура, которую ощущает человек, с поправкой на солнечный нагрев. Характеристика знойности погоды. Зависит от высоты солнца над горизонтом, облачности и скорости ветра. Ночью, в пасмурную погоду, а также при ветре 12 м/с и более поправка равна нулю.
  • P - Атмосферное давление - приведенное к уровню моря атмосферное давление.
  • Po - Атмосферное давление - измеренное на уровне метеостанции атмосферное давление.
  • Tmin - Минимальная температура - минимум температуры воздуха на высоте 2 м над землей.
  • Tmax - Максимальная температура - максимум температуры воздуха на высоте 2 м над землей.
  • R - Количество осадков - Количество выпавших осадков за период времени, мм. При наведении курсора мыши на число - период времени, за который выпало указанное количество осадков.
  • R24 - Количество осадков - Количество выпавших осадков за 24 часа, мм.
  • S - Снежный покров - Высота снежного покрова, см. При наведении курсора мыши на число - состояние снежного покрова и степень покрытия местности в баллах.